Tracking 23441 objects as of 15-Jun-2021
HD Live streaming from Space Station
objects crossing your sky now

FACSAT 1

Track FACSAT 1 now!
10-day predictions


NORAD ID: 43721
Int'l Code: 2018-096C
Perigee: 476.0 km
Apogee: 496.6 km
Inclination: 97.4 °
Period: 94.2 minutes
Semi major axis: 6857 km
RCS: Unknown
Launch date: November 29, 2018
Source: (TBD)
Launch site: SRIHARIKOTA (SRI)
aabbcc
Your satellite tracking list
Your tracking list is empty




NASA's NSSDC Master Catalog

Two Line Element Set (TLE):
1 43721U 18096C   21166.49217889  .00002742  00000-0  10016-3 0  9991
2 43721  97.3851 243.6451 0015053 278.7135 137.8976 15.28876560141829
Source of the keplerian elements: AFSPC